YMA7489 YPKA-YBRM

Flight info

Callsign YMA7489
Flight time 1h 0m
Altitude 31000
Route YPKA PD J151 SAFIR BUDLO YBRM
Aircraft B738/M-VGDW/C

Departure

Time 2026-04-18 09:15
Airport Karratha Airport (YPKA)

Arrival

Time 2026-04-18 10:15
Airport Broome International Airport (YBRM)
Time Latitude Longitude Altitude Speed Heading
2026-04-18 08:21 -20.70940 116.77079 37 ft 0 kts 28°
2026-04-18 09:06 -20.70944 116.77077 37 ft 1 kts 28°
2026-04-18 09:06 -20.70947 116.77075 37 ft 1 kts 27°
2026-04-18 09:07 -20.70951 116.77073 37 ft 1 kts 27°
2026-04-18 09:07 -20.70964 116.77066 34 ft 2 kts 31°
2026-04-18 09:07 -20.70976 116.77055 34 ft 2 kts 52°
2026-04-18 09:07 -20.70984 116.77040 33 ft 2 kts 84°
2026-04-18 09:08 -20.70984 116.77030 33 ft 0 kts 107°
2026-04-18 09:08 -20.71029 116.77063 37 ft 16 kts 175°
2026-04-18 09:08 -20.71150 116.77032 37 ft 20 kts 236°
2026-04-18 09:08 -20.71151 116.76890 38 ft 19 kts 252°
2026-04-18 09:09 -20.71189 116.76754 37 ft 19 kts 258°
2026-04-18 09:09 -20.71199 116.76616 40 ft 18 kts 266°
2026-04-18 09:09 -20.71204 116.76549 40 ft 3 kts 264°
2026-04-18 09:09 -20.71244 116.76467 41 ft 15 kts 207°
2026-04-18 09:10 -20.71254 116.76467 41 ft 0 kts 174°
2026-04-18 09:11 -20.71269 116.76468 41 ft 16 kts 176°
2026-04-18 09:11 -20.71361 116.76478 43 ft 7 kts 165°
2026-04-18 09:12 -20.71393 116.76508 40 ft 2 kts 112°
2026-04-18 09:12 -20.71395 116.76533 42 ft 0 kts 88°
2026-04-18 09:14 -20.71356 116.76867 35 ft 102 kts 83°
2026-04-18 09:14 -20.71239 116.77979 34 ft 195 kts 85°
2026-04-18 09:15 -20.71074 116.79546 845 ft 210 kts 82°
2026-04-18 09:15 -20.70858 116.80951 2825 ft 172 kts 79°
2026-04-18 09:15 -20.70630 116.82115 4560 ft 157 kts 77°
2026-04-18 09:15 -20.70333 116.83422 4997 ft 218 kts 76°
2026-04-18 09:16 -20.69868 116.85380 3833 ft 330 kts 75°
2026-04-18 09:16 -20.69228 116.88031 3449 ft 395 kts 75°
2026-04-18 09:16 -20.68576 116.90705 6054 ft 334 kts 75°
2026-04-18 09:16 -20.68055 116.92969 8128 ft 308 kts 80°
2026-04-18 09:17 -20.67804 116.95162 8597 ft 290 kts 84°
2026-04-18 09:17 -20.67588 116.97305 9036 ft 289 kts 83°
2026-04-18 09:17 -20.67330 116.99430 9505 ft 288 kts 82°
2026-04-18 09:17 -20.67047 117.01553 9997 ft 290 kts 82°
2026-04-18 09:18 -20.66735 117.03694 10491 ft 292 kts 81°
2026-04-18 09:18 -20.66412 117.05841 10955 ft 294 kts 81°
2026-04-18 09:18 -20.66074 117.07970 11398 ft 295 kts 80°
2026-04-18 09:18 -20.65712 117.10139 11827 ft 298 kts 80°
2026-04-18 09:19 -20.65347 117.12323 12252 ft 299 kts 80°
2026-04-18 09:19 -20.64980 117.14523 12681 ft 301 kts 80°
2026-04-18 09:19 -20.64734 117.15993 12957 ft 303 kts 80°
2026-04-18 09:19 -20.64355 117.18212 13346 ft 304 kts 79°
2026-04-18 09:20 -20.63950 117.20433 13745 ft 306 kts 79°
2026-04-18 09:20 -20.63406 117.23404 14317 ft 308 kts 79°
2026-04-18 09:20 -20.62995 117.25661 14766 ft 311 kts 79°
2026-04-18 09:20 -20.62583 117.27936 15233 ft 313 kts 79°
2026-04-18 09:21 -20.62308 117.29457 15535 ft 314 kts 79°
2026-04-18 09:21 -20.61892 117.31757 15984 ft 316 kts 79°
2026-04-18 09:21 -20.61469 117.34071 16425 ft 319 kts 79°
2026-04-18 09:21 -20.61044 117.36398 16863 ft 321 kts 79°
2026-04-18 09:22 -20.60618 117.38747 17300 ft 323 kts 79°
2026-04-18 09:22 -20.60190 117.41111 17728 ft 325 kts 79°
2026-04-18 09:22 -20.59759 117.43496 18152 ft 327 kts 79°
2026-04-18 09:22 -20.59329 117.45863 18570 ft 329 kts 79°
2026-04-18 09:23 -20.58889 117.48277 18991 ft 332 kts 79°
2026-04-18 09:23 -20.58447 117.50705 19407 ft 333 kts 79°
2026-04-18 09:23 -20.58006 117.53146 19812 ft 336 kts 79°
2026-04-18 09:23 -20.57563 117.55599 20217 ft 338 kts 79°
2026-04-18 09:24 -20.57116 117.58071 20618 ft 340 kts 79°
2026-04-18 09:24 -20.56664 117.60555 21018 ft 342 kts 79°
2026-04-18 09:24 -20.56216 117.63020 21408 ft 344 kts 79°
2026-04-18 09:24 -20.55760 117.65537 21801 ft 346 kts 79°
2026-04-18 09:25 -20.55303 117.68068 22181 ft 348 kts 79°
2026-04-18 09:25 -20.54845 117.70612 22565 ft 350 kts 79°
2026-04-18 09:25 -20.54380 117.73173 22946 ft 353 kts 79°
2026-04-18 09:25 -20.53911 117.75751 23323 ft 355 kts 79°
2026-04-18 09:26 -20.53442 117.78341 23698 ft 356 kts 79°
2026-04-18 09:26 -20.52971 117.80945 24078 ft 358 kts 79°
2026-04-18 09:26 -20.52499 117.83567 24445 ft 361 kts 79°
2026-04-18 09:26 -20.52025 117.86202 24809 ft 363 kts 79°
2026-04-18 09:27 -20.51543 117.88854 25172 ft 365 kts 79°
2026-04-18 09:27 -20.51057 117.91532 25532 ft 367 kts 79°
2026-04-18 09:27 -20.50573 117.94213 25885 ft 369 kts 79°
2026-04-18 09:27 -20.50087 117.96907 26242 ft 371 kts 79°
2026-04-18 09:28 -20.49606 117.99583 26601 ft 373 kts 79°
2026-04-18 09:28 -20.49115 118.02314 26940 ft 376 kts 79°
2026-04-18 09:28 -20.48617 118.05059 27291 ft 378 kts 79°
2026-04-18 09:28 -20.48090 118.07818 27633 ft 380 kts 78°
2026-04-18 09:29 -20.47543 118.10583 27977 ft 382 kts 78°
2026-04-18 09:29 -20.46994 118.13359 28318 ft 384 kts 78°
2026-04-18 09:29 -20.46457 118.16154 28651 ft 386 kts 79°
2026-04-18 09:29 -20.45944 118.18977 28989 ft 388 kts 79°
2026-04-18 09:30 -20.45438 118.21780 29312 ft 390 kts 79°
2026-04-18 09:30 -20.44926 118.24627 29644 ft 392 kts 79°
2026-04-18 09:30 -20.44410 118.27494 29970 ft 394 kts 79°
2026-04-18 09:30 -20.43892 118.30373 30296 ft 396 kts 79°
2026-04-18 09:31 -20.43338 118.33275 30611 ft 399 kts 78°
2026-04-18 09:31 -20.42766 118.36176 30928 ft 401 kts 78°
2026-04-18 09:31 -20.41603 118.42081 30993 ft 407 kts 78°
2026-04-18 09:32 -20.40528 118.47947 30998 ft 402 kts 79°
2026-04-18 09:32 -20.39480 118.53783 31000 ft 403 kts 79°
2026-04-18 09:33 -20.38376 118.59637 31000 ft 402 kts 78°
2026-04-18 09:33 -20.36629 118.65282 30990 ft 402 kts 62°
2026-04-18 09:34 -20.33872 118.70483 31008 ft 403 kts 60°
2026-04-18 09:34 -20.31108 118.75639 31001 ft 402 kts 60°
2026-04-18 09:35 -20.28389 118.80854 31000 ft 402 kts 61°
2026-04-18 09:35 -20.25696 118.86091 31000 ft 403 kts 61°
2026-04-18 09:36 -20.22998 118.91326 31000 ft 403 kts 61°
2026-04-18 09:36 -20.20310 118.96558 31001 ft 403 kts 61°
2026-04-18 09:37 -20.17634 119.01755 31000 ft 403 kts 61°
2026-04-18 09:37 -20.14942 119.06991 31000 ft 403 kts 61°
2026-04-18 09:38 -20.12212 119.12297 31005 ft 416 kts 61°
2026-04-18 09:38 -20.09380 119.17804 31003 ft 437 kts 61°
2026-04-18 09:39 -20.06387 119.23620 31003 ft 457 kts 61°
2026-04-18 09:39 -20.03280 119.29662 31000 ft 470 kts 61°
2026-04-18 09:40 -20.00142 119.35759 31000 ft 468 kts 61°
2026-04-18 09:40 -19.97040 119.41793 31001 ft 467 kts 61°
2026-04-18 09:41 -19.93911 119.47874 31000 ft 468 kts 61°
2026-04-18 09:41 -19.90786 119.53956 30999 ft 468 kts 61°
2026-04-18 09:42 -19.87657 119.60037 31000 ft 468 kts 61°
2026-04-18 09:42 -19.84553 119.66081 31000 ft 468 kts 61°
2026-04-18 09:43 -19.81423 119.72155 31000 ft 468 kts 60°
2026-04-18 09:43 -19.78209 119.78179 31001 ft 468 kts 60°
2026-04-18 09:44 -19.75018 119.84210 31000 ft 468 kts 61°
2026-04-18 09:44 -19.71898 119.90282 31000 ft 468 kts 61°
2026-04-18 09:45 -19.68793 119.96323 31001 ft 468 kts 61°
2026-04-18 09:45 -19.65637 120.02376 31000 ft 468 kts 60°
2026-04-18 09:46 -19.62414 120.08392 30999 ft 468 kts 60°
2026-04-18 09:46 -19.59271 120.14403 31001 ft 468 kts 61°
2026-04-18 09:47 -19.56159 120.20470 31000 ft 468 kts 61°
2026-04-18 09:47 -19.52998 120.26512 31000 ft 468 kts 60°
2026-04-18 09:48 -19.49781 120.32521 31000 ft 468 kts 60°
2026-04-18 09:48 -19.46591 120.38542 31000 ft 468 kts 61°
2026-04-18 09:49 -19.43493 120.44574 31000 ft 468 kts 61°
2026-04-18 09:49 -19.40335 120.50615 31000 ft 468 kts 60°
2026-04-18 09:50 -19.37119 120.56621 31000 ft 468 kts 60°
2026-04-18 09:50 -19.33923 120.62637 31000 ft 468 kts 60°
2026-04-18 09:51 -19.30732 120.68598 31000 ft 468 kts 60°
2026-04-18 09:51 -19.27524 120.74606 31000 ft 468 kts 60°
2026-04-18 09:52 -19.24307 120.80615 31000 ft 468 kts 60°
2026-04-18 09:52 -19.21101 120.86618 31000 ft 468 kts 60°
2026-04-18 09:53 -19.17910 120.92585 31000 ft 468 kts 60°
2026-04-18 09:53 -19.14702 120.98589 31000 ft 468 kts 60°
2026-04-18 09:54 -19.11494 121.04589 31000 ft 468 kts 60°
2026-04-18 09:54 -19.08289 121.10585 31000 ft 468 kts 60°
2026-04-18 09:55 -19.05082 121.16588 31001 ft 468 kts 60°
2026-04-18 09:55 -19.01891 121.22557 31000 ft 468 kts 60°
2026-04-18 09:56 -18.98690 121.28554 31000 ft 468 kts 60°
2026-04-18 09:56 -18.95437 121.34524 31000 ft 468 kts 59°
2026-04-18 09:57 -18.92165 121.40430 31000 ft 468 kts 60°
2026-04-18 09:57 -18.88959 121.46421 31000 ft 468 kts 60°
2026-04-18 09:58 -18.85754 121.52420 31001 ft 468 kts 60°
2026-04-18 09:58 -18.82529 121.58409 31000 ft 468 kts 59°
2026-04-18 09:59 -18.79231 121.64339 31000 ft 468 kts 59°
2026-04-18 10:00 -18.72958 121.72051 31022 ft 457 kts 44°
2026-04-18 10:00 -18.70692 121.74415 30430 ft 461 kts 45°
2026-04-18 10:00 -18.68427 121.76840 29752 ft 466 kts 45°
2026-04-18 10:00 -18.66174 121.79284 28485 ft 461 kts 45°
2026-04-18 10:01 -18.63982 121.81647 27606 ft 439 kts 45°
2026-04-18 10:01 -18.61839 121.83954 26949 ft 444 kts 45°
2026-04-18 10:01 -18.59680 121.86289 25666 ft 442 kts 46°
2026-04-18 10:01 -18.57619 121.88590 24742 ft 420 kts 46°
2026-04-18 10:02 -18.55609 121.90841 24121 ft 426 kts 46°
2026-04-18 10:02 -18.53615 121.93067 23146 ft 420 kts 46°
2026-04-18 10:02 -18.51623 121.95272 22183 ft 406 kts 46°
2026-04-18 10:02 -18.49699 121.97352 21507 ft 384 kts 45°
2026-04-18 10:03 -18.47859 121.99334 20261 ft 376 kts 45°
2026-04-18 10:03 -18.46069 122.01272 19620 ft 359 kts 45°
2026-04-18 10:03 -18.44317 122.03162 18991 ft 365 kts 46°
2026-04-18 10:03 -18.42433 122.05195 17951 ft 393 kts 45°
2026-04-18 10:04 -18.40604 122.07169 17035 ft 373 kts 46°
2026-04-18 10:04 -18.38785 122.09149 16078 ft 378 kts 46°
2026-04-18 10:04 -18.37019 122.11121 15500 ft 367 kts 47°
2026-04-18 10:04 -18.35248 122.13108 14453 ft 367 kts 46°
2026-04-18 10:05 -18.33535 122.15021 13544 ft 362 kts 46°
2026-04-18 10:05 -18.31773 122.16927 12909 ft 354 kts 45°
2026-04-18 10:05 -18.30060 122.18780 12062 ft 357 kts 45°
2026-04-18 10:05 -18.28355 122.20622 11235 ft 345 kts 45°
2026-04-18 10:06 -18.26701 122.22406 10869 ft 326 kts 45°
2026-04-18 10:06 -18.25199 122.24030 10582 ft 297 kts 45°
2026-04-18 10:06 -18.23786 122.25559 10277 ft 284 kts 45°
2026-04-18 10:06 -18.22404 122.27051 9981 ft 295 kts 45°
2026-04-18 10:07 -18.20994 122.28574 9658 ft 288 kts 45°
2026-04-18 10:07 -18.19618 122.30065 9363 ft 287 kts 45°
2026-04-18 10:07 -18.18206 122.31591 9045 ft 287 kts 45°
2026-04-18 10:07 -18.17293 122.32576 8851 ft 280 kts 45°
2026-04-18 10:08 -18.15488 122.34530 8431 ft 280 kts 45°
2026-04-18 10:08 -18.14580 122.35513 8218 ft 281 kts 45°
2026-04-18 10:08 -18.13235 122.36965 7906 ft 273 kts 45°
2026-04-18 10:08 -18.11928 122.38377 7580 ft 266 kts 45°
2026-04-18 10:09 -18.10244 122.40202 7173 ft 260 kts 45°
2026-04-18 10:09 -18.09394 122.41121 6962 ft 257 kts 45°
2026-04-18 10:09 -18.08178 122.42450 6658 ft 254 kts 46°
2026-04-18 10:09 -18.06979 122.43799 6384 ft 249 kts 46°
2026-04-18 10:10 -18.05793 122.45102 6074 ft 246 kts 41°
2026-04-18 10:10 -18.04281 122.45882 5460 ft 245 kts
2026-04-18 10:10 -18.02649 122.45571 4874 ft 241 kts 330°
2026-04-18 10:10 -18.01566 122.44318 4536 ft 227 kts 298°
2026-04-18 10:11 -18.00832 122.42904 4367 ft 217 kts 300°
2026-04-18 10:11 -18.00062 122.41561 4046 ft 211 kts 301°
2026-04-18 10:11 -17.99491 122.40180 3744 ft 204 kts 284°
2026-04-18 10:11 -17.99138 122.38758 3521 ft 199 kts 285°
2026-04-18 10:12 -17.98764 122.37379 3261 ft 198 kts 285°
2026-04-18 10:12 -17.98397 122.36005 2998 ft 192 kts 285°
2026-04-18 10:12 -17.98044 122.34684 2737 ft 183 kts 285°
2026-04-18 10:12 -17.97704 122.33419 2478 ft 178 kts 285°
2026-04-18 10:13 -17.97370 122.32159 2198 ft 179 kts 285°
2026-04-18 10:13 -17.97039 122.30913 1922 ft 179 kts 285°
2026-04-18 10:13 -17.96703 122.29665 1642 ft 175 kts 285°
2026-04-18 10:13 -17.96386 122.28479 1345 ft 163 kts 285°
2026-04-18 10:14 -17.96084 122.27354 1033 ft 157 kts 285°
2026-04-18 10:14 -17.95812 122.26307 751 ft 141 kts 284°
2026-04-18 10:14 -17.95567 122.25356 461 ft 129 kts 284°
2026-04-18 10:14 -17.95339 122.24475 227 ft 123 kts 286°
2026-04-18 10:15 -17.95109 122.23629 31 ft 113 kts 284°
2026-04-18 10:15 -17.94974 122.23108 40 ft 52 kts 286°
2026-04-18 10:15 -17.94897 122.22827 44 ft 23 kts 284°
2026-04-18 10:15 -17.94832 122.22691 50 ft 11 kts 346°
2026-04-18 10:16 -17.94794 122.22702 49 ft 0 kts 32°
2026-04-18 10:16 -17.94786 122.22714 48 ft 11 kts 62°
2026-04-18 10:16 -17.94811 122.22804 46 ft 16 kts 106°
2026-04-18 10:16 -17.94847 122.22934 44 ft 20 kts 106°
2026-04-18 10:17 -17.94873 122.23052 42 ft 5 kts 71°
2026-04-18 10:17 -17.94801 122.23086 42 ft 19 kts 25°
2026-04-18 10:17 -17.94773 122.23104 42 ft 8 kts 43°
2026-04-18 10:17 -17.94756 122.23150 41 ft 0 kts 64°
2026-04-18 10:18 -17.94849 122.23119 42 ft 0 kts 196°
2026-04-18 10:18 -17.95683 122.22847 159 ft 193 kts 217°